Location: Peebles
(55.6412°N, 3.1714°W)
Time: 23:28:28
(UTC+00:00)

Cosmos 1934 Rocket - Visible Passes

Search period start: 27 January 2022 00:00
Search period end: 06 February 2022 00:00
Orbit: 938 x 999 km, 83.0° (Epoch: 27 January)

Date Brightness Start Highest point End Pass type
(mag) Time Alt. Az. Time Alt. Az. Time Alt. Az.
27 Jan 6.9 05:25:07 10° E 05:27:42 13° ENE 05:30:17 10° NE visible
27 Jan 4.8 07:05:29 10° S 07:11:37 56° E 07:17:42 10° NNE visible
27 Jan 3.9 17:52:04 10° N 17:58:13 67° ENE 18:04:15 10° SSE visible
27 Jan 5.9 19:37:53 10° NNW 19:43:01 29° W 19:48:05 10° SW visible
28 Jan 6.6 05:46:08 10° ESE 05:50:29 20° ENE 05:54:49 10° NNE visible
28 Jan 4.2 07:28:33 10° S 07:34:52 84° E 07:41:08 10° NNE visible
28 Jan 4.0 18:15:25 10° NNW 18:21:35 82° W 18:27:39 10° S visible
28 Jan 6.5 20:01:50 10° NW 20:05:54 19° WNW 20:09:56 10° WSW visible
29 Jan 6.0 06:08:04 10° SE 06:13:23 30° E 06:18:41 10° NNE visible
29 Jan 4.7 18:38:52 10° NNW 18:44:49 54° W 18:50:40 10° SSW visible
29 Jan 7.0 20:26:36 10° NW 20:28:39 12° WNW 20:30:42 10° W visible
30 Jan 5.2 06:30:31 10° SSE 06:36:27 46° E 06:42:19 10° NNE visible
30 Jan 4.1 17:16:51 10° N 17:22:52 55° ENE 17:28:48 10° SSE visible
30 Jan 5.6 19:02:27 10° NNW 19:07:54 35° W 19:13:18 10° SSW visible
31 Jan 6.8 05:11:51 10° ESE 05:15:28 16° ENE 05:19:05 10° NE visible
31 Jan 4.4 06:53:24 10° S 06:59:38 70° E 07:05:49 10° NNE visible
31 Jan 3.9 17:40:09 10° N 17:46:18 82° ENE 17:52:23 10° SSE visible
31 Jan 6.3 19:26:13 10° NNW 19:30:51 23° W 19:35:26 10° SW visible
01 Feb 6.3 05:33:26 10° SE 05:38:19 25° E 05:43:11 10° NNE visible
01 Feb 4.0 07:16:40 10° SSW 07:22:57 80° WNW 07:29:11 10° N visible
01 Feb 4.4 18:03:32 10° NNW 18:09:36 67° W 18:15:35 10° S visible
01 Feb 6.9 19:50:28 10° NW 19:53:40 15° WNW 19:56:52 10° WSW visible
02 Feb 5.6 05:55:39 10° SSE 06:01:18 37° E 06:06:55 10° NNE visible
02 Feb 5.2 18:27:03 10° NNW 18:32:45 43° W 18:38:24 10° SSW visible
03 Feb 7.0 04:37:55 10° E 04:40:30 13° ENE 04:43:04 10° NE visible
03 Feb 4.7 06:18:20 10° S 06:24:26 57° E 06:30:28 10° NNE visible
03 Feb 6.0 18:50:43 10° NNW 18:55:47 28° W 19:00:48 10° SW visible
04 Feb 6.5 04:58:57 10° ESE 05:03:16 20° ENE 05:07:34 10° NNE visible
04 Feb 4.1 06:41:25 10° S 06:47:40 85° E 06:53:53 10° NNE visible
04 Feb 4.1 17:28:14 10° NNW 17:34:21 81° W 17:40:24 10° S visible
04 Feb 6.7 19:14:40 10° NW 19:18:39 18° WNW 19:22:38 10° WSW visible
05 Feb 5.9 05:20:53 10° SE 05:26:12 30° E 05:31:27 10° NNE visible
05 Feb 4.0 07:04:51 10° SSW 07:11:03 65° WNW 07:17:12 10° N visible
05 Feb 4.9 17:51:41 10° NNW 17:57:34 53° W 18:03:25 10° SSW visible
05 Feb 7.1 19:39:31 10° NW 19:41:24 12° WNW 19:43:17 10° W visible
